DW3201 Weather Reports


Display with metric or nautical units.
time (UTC)temp
F
wind
direction
speed
MPH
gust
MPH
rain 1hr
in
rain 24hr
in
rain mn
in
humidity
%
barometer
mb
20260505010111 70 255 3.0 8.0 0.00 0.00 0.00 38 996.0
20260505004555 72 229 3.0 12.0 0.00 0.00 0.00 37 995.8
20260505003124 74 276 2.0 4.0 0.00 0.00 0.00 35 995.3
20260505001558 74 248 3.0 6.0 0.00 0.00 0.00 34 994.7
20260505000059 75 225 4.0 7.0 0.00 0.00 0.00 33 994.8
20260504234555 75 258 3.0 8.0 0.00 0.00 0.00 32 994.8
20260504233057 75 280 5.0 10.0 0.00 0.00 0.00 31 995.0
20260504231552 75 303 5.0 12.0 0.00 0.00 0.00 31 995.4
20260504230113 75 269 10.0 22.0 0.00 0.00 0.00 29 995.5
20260504224612 76 291 6.0 14.0 0.00 0.00 0.00 30 995.4
20260504223053 79 271 9.0 18.0 0.00 0.00 0.00 29 995.4
20260504221553 79 245 10.0 19.0 0.00 0.00 0.00 28 995.2
20260504220057 79 240 10.0 17.0 0.00 0.00 0.00 28 995.5
20260504214551 78 231 8.0 21.0 0.00 0.00 0.00 28 995.7
20260504213056 78 221 9.0 17.0 0.00 0.00 0.00 27 995.7
20260504211558 79 295 7.0 21.0 0.00 0.00 0.00 27 995.8
20260504210101 79 263 11.0 20.0 0.00 0.00 0.00 26 995.9
20260504204556 79 297 11.0 22.0 0.00 0.00 0.00 27 996.1
20260504203057 78 211 9.0 23.0 0.00 0.00 0.00 27 996.2
20260504201604 78 210 10.0 19.0 0.00 0.00 0.00 27 996.4
20260504194555 78 260 9.0 19.0 0.00 0.00 0.00 26 996.8
20260504193052 78 243 10.0 19.0 0.00 0.00 0.00 25 996.7
20260504191606 78 193 11.0 20.0 0.00 0.00 0.00 26 996.9
20260504190052 77 210 10.0 18.0 0.00 0.00 0.00 26 997.0
20260504184551 77 245 9.0 24.0 0.00 0.00 0.00 27 996.9
20260504183053 76 245 13.0 20.0 0.00 0.00 0.00 27 997.1
20260504181559 76 260 12.0 23.0 0.00 0.00 0.00 26 997.4
20260504180052 75 162 9.0 22.0 0.00 0.00 0.00 27 997.3
20260504174558 75 249 8.0 22.0 0.00 0.00 0.00 27 997.6
20260504173058 75 266 10.0 17.0 0.00 0.00 0.00 27 997.7
20260504171555 74 245 12.0 22.0 0.00 0.00 0.00 28 998.2
20260504120124 55 231 0.0 4.0 0.00 0.00 0.00 63 1001.4
20260504081557 49 0 0.0 1.0 0.00 0.00 0.00 76 1002.5
20260504044555 57 275 0.0 3.0 0.00 0.00 0.00 63 1003.9
20260504043111 57 278 2.0 5.0 0.00 0.00 0.00 62 1003.9
20260504041552 57 260 2.0 6.0 0.00 0.00 0.00 62 1004.0
20260504040055 55 248 2.0 4.0 0.00 0.00 0.00 68 1003.9
20260504034555 52 0 0.0 2.0 0.00 0.00 0.00 77 1003.9
20260504033116 53 0 0.0 0.0 0.00 0.00 0.00 75 1004.0
20260504031557 53 0 0.0 0.0 0.00 0.00 0.00 76 1004.0
20260504030114 54 0 0.0 0.0 0.00 0.00 0.00 75 1004.0
20260504024553 55 0 0.0 1.0 0.00 0.00 0.00 73 1004.0
20260504023055 56 0 0.0 1.0 0.00 0.00 0.00 68 1003.8
20260504021558 57 0 0.0 1.0 0.00 0.00 0.00 62 1003.7
20260504020105 58 255 0.0 1.0 0.00 0.00 0.00 64 1003.8
20260504014554 60 0 0.0 1.0 0.00 0.00 0.00 58 1003.7
20260504013055 61 268 0.0 1.0 0.00 0.00 0.00 58 1003.8
20260504011553 63 239 0.0 2.0 0.00 0.00 0.00 52 1003.6